Year,Month,Day,Hour,Minute,Value (Times are PST for windgust in km/hr)
2014,02,15,01,18,3.20
2014,02,15,01,19,3.20
2014,02,15,01,20,3.20
2014,02,15,01,21,1.60
2014,02,15,04,10,1.60
2014,02,15,04,31,4.80
2014,02,15,04,32,3.20
2014,02,15,04,33,3.20
2014,02,15,04,34,4.80
2014,02,15,04,35,3.20
2014,02,15,04,38,9.60
2014,02,15,04,39,9.60
2014,02,15,04,40,11.30
2014,02,15,04,41,9.60
2014,02,15,04,42,9.60
2014,02,15,04,43,8.10
2014,02,15,04,44,8.10
2014,02,15,04,45,16.10
2014,02,15,04,46,14.50
2014,02,15,04,47,6.40
2014,02,15,04,48,8.10
2014,02,15,04,49,9.60
2014,02,15,04,50,8.10
2014,02,15,04,52,14.50
2014,02,15,04,53,9.60
2014,02,15,04,54,16.10
2014,02,15,04,55,16.10
2014,02,15,04,56,9.60
2014,02,15,04,57,4.80
2014,02,15,04,58,4.80
2014,02,15,04,59,3.20
2014,02,15,05,00,3.20
2014,02,15,05,01,4.80
2014,02,15,05,02,9.60
2014,02,15,05,03,9.60
2014,02,15,05,05,9.60
2014,02,15,05,06,11.30
2014,02,15,05,07,9.60
2014,02,15,05,08,9.60
2014,02,15,05,09,8.10
2014,02,15,05,10,11.30
2014,02,15,05,11,8.10
2014,02,15,05,12,6.40
2014,02,15,05,13,9.60
2014,02,15,05,15,1.60
2014,02,15,05,16,9.60
2014,02,15,05,17,12.90
2014,02,15,05,18,11.30
2014,02,15,05,19,4.80
2014,02,15,05,21,8.10
2014,02,15,05,22,8.10
2014,02,15,05,23,4.80
2014,02,15,05,24,8.10
2014,02,15,05,27,8.10
2014,02,15,05,29,6.40
2014,02,15,05,35,3.20
2014,02,15,05,37,1.60
2014,02,15,05,39,4.80
2014,02,15,05,45,1.60
2014,02,15,05,48,6.40
2014,02,15,05,49,11.30
2014,02,15,05,50,4.80
2014,02,15,05,53,3.20
2014,02,15,05,54,6.40
2014,02,15,05,57,3.20
2014,02,15,05,58,11.30
2014,02,15,05,59,4.80
2014,02,15,06,01,1.60
2014,02,15,06,02,14.50
2014,02,15,06,03,8.10
2014,02,15,06,04,6.40
2014,02,15,06,06,9.60
2014,02,15,06,07,11.30
2014,02,15,06,08,8.10
2014,02,15,06,09,1.60
2014,02,15,06,10,19.30
2014,02,15,06,11,16.10
2014,02,15,06,12,8.10
2014,02,15,06,13,9.60
2014,02,15,06,14,6.40
2014,02,15,06,15,4.80
2014,02,15,06,16,3.20
2014,02,15,06,17,6.40
2014,02,15,06,18,3.20
2014,02,15,06,19,3.20
2014,02,15,06,21,4.80
2014,02,15,06,22,6.40
2014,02,15,06,23,8.10
2014,02,15,06,24,6.40
2014,02,15,06,30,4.80
2014,02,15,06,31,8.10
2014,02,15,06,32,4.80
2014,02,15,06,33,11.30
2014,02,15,06,34,4.80
2014,02,15,06,36,4.80
2014,02,15,06,37,6.40
2014,02,15,06,38,4.80
2014,02,15,06,40,1.60
2014,02,15,06,41,6.40
2014,02,15,06,42,6.40
2014,02,15,06,43,11.30
2014,02,15,06,44,8.10
2014,02,15,06,47,3.20
2014,02,15,06,48,8.10
2014,02,15,06,49,6.40
2014,02,15,06,50,8.10
2014,02,15,06,52,1.60
2014,02,15,06,53,8.10
2014,02,15,06,54,4.80
2014,02,15,06,55,6.40
2014,02,15,06,59,6.40
2014,02,15,07,00,9.60
2014,02,15,07,01,9.60
2014,02,15,07,02,6.40
2014,02,15,07,05,3.20
2014,02,15,07,06,3.20
2014,02,15,07,08,6.40
2014,02,15,07,10,8.10
2014,02,15,07,11,16.10
2014,02,15,07,12,8.10
2014,02,15,07,13,4.80
2014,02,15,07,14,4.80
2014,02,15,07,16,4.80
2014,02,15,07,17,12.90
2014,02,15,07,18,8.10
2014,02,15,07,19,4.80
2014,02,15,07,21,6.40
2014,02,15,07,22,9.60
2014,02,15,07,23,11.30
2014,02,15,07,24,9.60
2014,02,15,07,25,11.30
2014,02,15,07,29,11.30
2014,02,15,07,30,8.10
2014,02,15,07,31,9.60
2014,02,15,07,32,11.30
2014,02,15,07,33,8.10
2014,02,15,07,34,11.30
2014,02,15,07,35,8.10
2014,02,15,07,36,1.60
2014,02,15,07,37,8.10
2014,02,15,07,38,8.10
2014,02,15,07,39,8.10
2014,02,15,07,40,16.10
2014,02,15,07,41,8.10
2014,02,15,07,42,11.30
2014,02,15,07,43,11.30
2014,02,15,07,44,6.40
2014,02,15,07,45,8.10
2014,02,15,07,46,9.60
2014,02,15,07,47,8.10
2014,02,15,07,48,4.80
2014,02,15,07,49,9.60
2014,02,15,07,50,4.80
2014,02,15,07,51,3.20
2014,02,15,07,52,8.10
2014,02,15,07,53,9.60
2014,02,15,07,54,6.40
2014,02,15,07,55,9.60
2014,02,15,07,56,9.60
2014,02,15,07,57,9.60
2014,02,15,07,59,9.60
2014,02,15,08,00,6.40
2014,02,15,08,01,1.60
2014,02,15,08,02,1.60
2014,02,15,08,03,8.10
2014,02,15,08,04,9.60
2014,02,15,08,05,4.80
2014,02,15,08,08,4.80
2014,02,15,08,09,11.30
2014,02,15,08,10,8.10
2014,02,15,08,11,6.40
2014,02,15,08,12,9.60
2014,02,15,08,13,8.10
2014,02,15,08,14,6.40
2014,02,15,08,15,9.60
2014,02,15,08,16,6.40
2014,02,15,08,17,9.60
2014,02,15,08,18,16.10
2014,02,15,08,19,14.50
2014,02,15,08,20,8.10
2014,02,15,08,21,9.60
2014,02,15,08,22,16.10
2014,02,15,08,23,11.30
2014,02,15,08,24,8.10
2014,02,15,08,25,11.30
2014,02,15,08,26,11.30
2014,02,15,08,27,9.60
2014,02,15,08,28,14.50
2014,02,15,08,29,9.60
2014,02,15,08,30,4.80
2014,02,15,08,31,8.10
2014,02,15,08,32,8.10
2014,02,15,08,33,20.90
2014,02,15,08,34,11.30
2014,02,15,08,35,14.50
2014,02,15,08,36,9.60
2014,02,15,08,37,6.40
2014,02,15,08,38,14.50
2014,02,15,08,39,8.10
2014,02,15,08,40,14.50
2014,02,15,08,41,9.60
2014,02,15,08,42,8.10
2014,02,15,08,43,11.30
2014,02,15,08,44,9.60
2014,02,15,08,45,16.10
2014,02,15,08,46,9.60
2014,02,15,08,47,16.10
2014,02,15,08,48,17.70
2014,02,15,08,49,9.60
2014,02,15,08,50,12.90
2014,02,15,08,51,11.30
2014,02,15,08,52,6.40
2014,02,15,08,53,11.30
2014,02,15,08,54,9.60
2014,02,15,08,55,11.30
2014,02,15,08,56,9.60
2014,02,15,08,57,11.30
2014,02,15,08,58,9.60
2014,02,15,08,59,14.50
2014,02,15,09,00,11.30
2014,02,15,09,01,24.20
2014,02,15,09,02,16.10
2014,02,15,09,03,12.90
2014,02,15,09,04,6.40
2014,02,15,09,05,6.40
2014,02,15,09,06,9.60
2014,02,15,09,07,11.30
2014,02,15,09,08,8.10
2014,02,15,09,09,9.60
2014,02,15,09,10,8.10
2014,02,15,09,11,11.30
2014,02,15,09,12,6.40
2014,02,15,09,13,14.50
2014,02,15,09,14,17.70
2014,02,15,09,15,8.10
2014,02,15,09,16,11.30
2014,02,15,09,17,9.60
2014,02,15,09,18,11.30
2014,02,15,09,19,14.50
2014,02,15,09,20,17.70
2014,02,15,09,21,9.60
2014,02,15,09,22,11.30
2014,02,15,09,23,8.10
2014,02,15,09,24,4.80
2014,02,15,09,25,4.80
2014,02,15,09,26,6.40
2014,02,15,09,27,6.40
2014,02,15,09,28,8.10
2014,02,15,09,29,8.10
2014,02,15,09,30,8.10
2014,02,15,09,32,1.60
2014,02,15,09,33,8.10
2014,02,15,09,34,9.60
2014,02,15,09,35,11.30
2014,02,15,09,36,14.50
2014,02,15,09,37,14.50
2014,02,15,09,38,16.10
2014,02,15,09,39,8.10
2014,02,15,09,40,6.40
2014,02,15,09,43,16.10
2014,02,15,09,44,9.60
2014,02,15,09,45,8.10
2014,02,15,09,46,9.60
2014,02,15,09,47,4.80
2014,02,15,09,48,9.60
2014,02,15,09,49,9.60
2014,02,15,09,50,9.60
2014,02,15,09,51,1.60
2014,02,15,09,52,6.40
2014,02,15,09,53,3.20
2014,02,15,09,56,1.60
2014,02,15,09,57,6.40
2014,02,15,09,58,8.10
2014,02,15,09,59,1.60
2014,02,15,10,00,3.20
2014,02,15,10,01,6.40
2014,02,15,10,02,4.80
2014,02,15,10,03,1.60
2014,02,15,10,04,8.10
2014,02,15,10,05,6.40
2014,02,15,10,08,3.20
2014,02,15,10,09,14.50
2014,02,15,10,10,8.10
2014,02,15,10,11,8.10
2014,02,15,10,12,6.40
2014,02,15,10,13,11.30
2014,02,15,10,14,8.10
2014,02,15,10,15,8.10
2014,02,15,10,17,4.80
2014,02,15,10,20,8.10
2014,02,15,10,21,4.80
2014,02,15,10,23,9.60
2014,02,15,10,24,9.60
2014,02,15,10,25,8.10
2014,02,15,10,26,9.60
2014,02,15,10,27,6.40
2014,02,15,10,28,9.60
2014,02,15,10,29,11.30
2014,02,15,10,30,6.40
2014,02,15,10,31,8.10
2014,02,15,10,32,8.10
2014,02,15,10,33,9.60
2014,02,15,10,36,6.40
2014,02,15,10,39,12.90
2014,02,15,10,40,9.60
2014,02,15,10,41,4.80
2014,02,15,10,42,3.20
2014,02,15,10,43,1.60
2014,02,15,10,44,8.10
2014,02,15,10,45,8.10
2014,02,15,10,46,16.10
2014,02,15,10,47,9.60
2014,02,15,10,48,12.90
2014,02,15,10,49,16.10
2014,02,15,10,50,17.70
2014,02,15,10,51,11.30
2014,02,15,10,52,16.10
2014,02,15,10,53,16.10
2014,02,15,10,54,14.50
2014,02,15,10,55,16.10
2014,02,15,10,56,9.60
2014,02,15,10,57,11.30
2014,02,15,10,58,19.30
2014,02,15,10,59,8.10
2014,02,15,11,00,14.50
2014,02,15,11,01,17.70
2014,02,15,11,02,25.70
2014,02,15,11,03,17.70
2014,02,15,11,04,17.70
2014,02,15,11,05,14.50
2014,02,15,11,06,17.70
2014,02,15,11,07,9.60
2014,02,15,11,08,19.30
2014,02,15,11,09,20.90
2014,02,15,11,10,19.30
2014,02,15,11,11,19.30
2014,02,15,11,12,9.60
2014,02,15,11,13,19.30
2014,02,15,11,14,16.10
2014,02,15,11,15,8.10
2014,02,15,11,16,19.30
2014,02,15,11,17,14.50
2014,02,15,11,18,14.50
2014,02,15,11,19,17.70
2014,02,15,11,20,19.30
2014,02,15,11,21,24.20
2014,02,15,11,22,17.70
2014,02,15,11,23,17.70
2014,02,15,11,24,16.10
2014,02,15,11,25,11.30
2014,02,15,11,26,11.30
2014,02,15,11,27,9.60
2014,02,15,11,28,16.10
2014,02,15,11,29,8.10
2014,02,15,11,30,14.50
2014,02,15,11,31,9.60
2014,02,15,11,32,14.50
2014,02,15,11,33,16.10
2014,02,15,11,34,14.50
2014,02,15,11,35,17.70
2014,02,15,11,36,17.70
2014,02,15,11,37,12.90
2014,02,15,11,38,16.10
2014,02,15,11,39,17.70
2014,02,15,11,40,11.30
2014,02,15,11,41,6.40
2014,02,15,11,42,14.50
2014,02,15,11,43,11.30
2014,02,15,11,44,11.30
2014,02,15,11,45,9.60
2014,02,15,11,46,16.10
2014,02,15,11,47,16.10
2014,02,15,11,48,17.70
2014,02,15,11,49,20.90
2014,02,15,11,50,16.10
2014,02,15,11,51,16.10
2014,02,15,11,52,16.10
2014,02,15,11,53,14.50
2014,02,15,11,54,19.30
2014,02,15,11,55,19.30
2014,02,15,11,56,19.30
2014,02,15,11,57,17.70
2014,02,15,11,58,20.90
2014,02,15,11,59,16.10
2014,02,15,12,00,11.30
2014,02,15,12,01,16.10
2014,02,15,12,02,17.70
2014,02,15,12,03,16.10
2014,02,15,12,04,14.50
2014,02,15,12,05,12.90
2014,02,15,12,06,8.10
2014,02,15,12,07,9.60
2014,02,15,12,08,11.30
2014,02,15,12,09,11.30
2014,02,15,12,10,9.60
2014,02,15,12,11,9.60
2014,02,15,12,12,8.10
2014,02,15,12,13,14.50
2014,02,15,12,14,11.30
2014,02,15,12,15,14.50
2014,02,15,12,16,19.30
2014,02,15,12,17,16.10
2014,02,15,12,18,24.20
2014,02,15,12,19,20.90
2014,02,15,12,20,19.30
2014,02,15,12,21,11.30
2014,02,15,12,22,11.30
2014,02,15,12,23,11.30
2014,02,15,12,24,11.30
2014,02,15,12,25,6.40
2014,02,15,12,26,19.30
2014,02,15,12,27,9.60
2014,02,15,12,28,11.30
2014,02,15,12,29,11.30
2014,02,15,12,30,19.30
2014,02,15,12,31,14.50
2014,02,15,12,32,6.40
2014,02,15,12,33,9.60
2014,02,15,12,34,11.30
2014,02,15,12,35,11.30
2014,02,15,12,36,9.60
2014,02,15,12,37,11.30
2014,02,15,12,38,11.30
2014,02,15,12,39,4.80
2014,02,15,12,40,11.30
2014,02,15,12,41,19.30
2014,02,15,12,42,12.90
2014,02,15,12,43,14.50
2014,02,15,12,44,19.30
2014,02,15,12,45,20.90
2014,02,15,12,46,22.50
2014,02,15,12,47,11.30
2014,02,15,12,48,9.60
2014,02,15,12,49,19.30
2014,02,15,12,50,16.10
2014,02,15,12,51,9.60
2014,02,15,12,52,6.40
2014,02,15,12,53,9.60
2014,02,15,12,54,16.10
2014,02,15,12,55,11.30
2014,02,15,12,56,9.60
2014,02,15,12,57,9.60
2014,02,15,12,58,11.30
2014,02,15,12,59,12.90
2014,02,15,13,00,17.70
2014,02,15,13,01,11.30
2014,02,15,13,02,16.10
2014,02,15,13,03,14.50
2014,02,15,13,04,14.50
2014,02,15,13,05,6.40
2014,02,15,13,06,8.10
2014,02,15,13,07,14.50
2014,02,15,13,08,22.50
2014,02,15,13,09,16.10
2014,02,15,13,10,9.60
2014,02,15,13,11,12.90
2014,02,15,13,12,22.50
2014,02,15,13,13,29.00
2014,02,15,13,14,24.20
2014,02,15,13,15,19.30
2014,02,15,13,16,20.90
2014,02,15,13,17,19.30
2014,02,15,13,18,24.20
2014,02,15,13,19,19.30
2014,02,15,13,20,20.90
2014,02,15,13,21,14.50
2014,02,15,13,22,16.10
2014,02,15,13,23,14.50
2014,02,15,13,24,14.50
2014,02,15,13,25,11.30
2014,02,15,13,26,16.10
2014,02,15,13,27,16.10
2014,02,15,13,28,16.10
2014,02,15,13,29,9.60
2014,02,15,13,30,11.30
2014,02,15,13,31,9.60
2014,02,15,13,32,14.50
2014,02,15,13,33,9.60
2014,02,15,13,34,11.30
2014,02,15,13,35,4.80
2014,02,15,13,36,3.20
2014,02,15,13,37,8.10
2014,02,15,13,38,6.40
2014,02,15,13,39,6.40
2014,02,15,13,40,8.10
2014,02,15,13,41,11.30
2014,02,15,13,42,11.30
2014,02,15,13,43,16.10
2014,02,15,13,44,14.50
2014,02,15,13,45,16.10
2014,02,15,13,46,25.70
2014,02,15,13,47,14.50
2014,02,15,13,48,16.10
2014,02,15,13,49,11.30
2014,02,15,13,50,8.10
2014,02,15,13,51,6.40
2014,02,15,13,52,4.80
2014,02,15,13,54,12.90
2014,02,15,13,55,9.60
2014,02,15,13,56,8.10
2014,02,15,13,57,16.10
2014,02,15,13,58,16.10
2014,02,15,13,59,8.10
2014,02,15,14,00,4.80
2014,02,15,14,01,4.80
2014,02,15,14,03,4.80
2014,02,15,14,05,8.10
2014,02,15,14,06,11.30
2014,02,15,14,07,9.60
2014,02,15,14,08,6.40
2014,02,15,14,09,4.80
2014,02,15,14,10,6.40
2014,02,15,14,11,9.60
2014,02,15,14,12,9.60
2014,02,15,14,13,4.80
2014,02,15,14,14,8.10
2014,02,15,14,15,9.60
2014,02,15,14,16,11.30
2014,02,15,14,17,8.10
2014,02,15,14,18,9.60
2014,02,15,14,19,6.40
2014,02,15,14,21,16.10
2014,02,15,14,22,8.10
2014,02,15,14,23,6.40
2014,02,15,14,25,6.40
2014,02,15,14,26,9.60
2014,02,15,14,27,11.30
2014,02,15,14,28,16.10
2014,02,15,14,29,11.30
2014,02,15,14,30,8.10
2014,02,15,14,31,9.60
2014,02,15,14,32,9.60
2014,02,15,14,33,16.10
2014,02,15,14,34,9.60
2014,02,15,14,35,8.10
2014,02,15,14,36,8.10
2014,02,15,14,37,9.60
2014,02,15,14,38,17.70
2014,02,15,14,39,17.70
2014,02,15,14,40,14.50
2014,02,15,14,41,11.30
2014,02,15,14,42,11.30
2014,02,15,14,43,17.70
2014,02,15,14,44,19.30
2014,02,15,14,45,14.50
2014,02,15,14,46,14.50
2014,02,15,14,47,16.10
2014,02,15,14,48,14.50
2014,02,15,14,49,9.60
2014,02,15,14,50,17.70
2014,02,15,14,51,14.50
2014,02,15,14,52,19.30
2014,02,15,14,53,17.70
2014,02,15,14,54,16.10
2014,02,15,14,55,22.50
2014,02,15,14,56,17.70
2014,02,15,14,57,17.70
2014,02,15,14,58,19.30
2014,02,15,14,59,17.70
2014,02,15,15,00,22.50
2014,02,15,15,01,22.50
2014,02,15,15,02,11.30
2014,02,15,15,03,9.60
2014,02,15,15,04,20.90
2014,02,15,15,05,19.30
2014,02,15,15,06,14.50
2014,02,15,15,07,14.50
2014,02,15,15,08,11.30
2014,02,15,15,09,16.10
2014,02,15,15,10,9.60
2014,02,15,15,11,14.50
2014,02,15,15,12,12.90
2014,02,15,15,13,14.50
2014,02,15,15,14,19.30
2014,02,15,15,15,25.70
2014,02,15,15,16,19.30
2014,02,15,15,17,19.30
2014,02,15,15,18,9.60
2014,02,15,15,19,11.30
2014,02,15,15,20,16.10
2014,02,15,15,21,9.60
2014,02,15,15,22,9.60
2014,02,15,15,23,6.40
2014,02,15,15,24,6.40
2014,02,15,15,25,11.30
2014,02,15,15,26,11.30
2014,02,15,15,27,9.60
2014,02,15,15,28,14.50
2014,02,15,15,29,17.70
2014,02,15,15,30,11.30
2014,02,15,15,31,24.20
2014,02,15,15,32,25.70
2014,02,15,15,33,17.70
2014,02,15,15,34,11.30
2014,02,15,15,35,17.70
2014,02,15,15,36,8.10
2014,02,15,15,37,17.70
2014,02,15,15,38,24.20
2014,02,15,15,39,19.30
2014,02,15,15,40,11.30
2014,02,15,15,41,19.30
2014,02,15,15,42,17.70
2014,02,15,15,43,14.50
2014,02,15,15,44,9.60
2014,02,15,15,45,19.30
2014,02,15,15,46,8.10
2014,02,15,15,47,14.50
2014,02,15,15,48,8.10
2014,02,15,15,49,9.60
2014,02,15,15,50,19.30
2014,02,15,15,51,9.60
2014,02,15,15,52,9.60
2014,02,15,15,53,17.70
2014,02,15,15,54,17.70
2014,02,15,15,55,17.70
2014,02,15,15,56,8.10
2014,02,15,15,57,16.10
2014,02,15,15,58,20.90
2014,02,15,15,59,17.70
2014,02,15,16,00,11.30
2014,02,15,16,01,9.60
2014,02,15,16,02,8.10
2014,02,15,16,03,16.10
2014,02,15,16,04,11.30
2014,02,15,16,05,20.90
2014,02,15,16,06,17.70
2014,02,15,16,07,9.60
2014,02,15,16,08,8.10
2014,02,15,16,09,6.40
2014,02,15,16,11,4.80
2014,02,15,16,12,8.10
2014,02,15,16,13,17.70
2014,02,15,16,14,19.30
2014,02,15,16,15,19.30
2014,02,15,16,16,17.70
2014,02,15,16,17,9.60
2014,02,15,16,18,9.60
2014,02,15,16,19,17.70
2014,02,15,16,20,19.30
2014,02,15,16,21,17.70
2014,02,15,16,22,19.30
2014,02,15,16,23,25.70
2014,02,15,16,24,22.50
2014,02,15,16,25,12.90
2014,02,15,16,26,11.30
2014,02,15,16,27,24.20
2014,02,15,16,28,19.30
2014,02,15,16,29,9.60
2014,02,15,16,30,27.40
2014,02,15,16,31,29.00
2014,02,15,16,32,22.50
2014,02,15,16,33,17.70
2014,02,15,16,34,20.90
2014,02,15,16,35,25.70
2014,02,15,16,36,17.70
2014,02,15,16,37,24.20
2014,02,15,16,38,17.70
2014,02,15,16,39,17.70
2014,02,15,16,40,9.60
2014,02,15,16,41,14.50
2014,02,15,16,42,11.30
2014,02,15,16,43,6.40
2014,02,15,16,44,14.50
2014,02,15,16,45,19.30
2014,02,15,16,46,19.30
2014,02,15,16,47,17.70
2014,02,15,16,48,19.30
2014,02,15,16,49,12.90
2014,02,15,16,50,16.10
2014,02,15,16,51,16.10
2014,02,15,16,52,8.10
2014,02,15,16,53,6.40
2014,02,15,16,54,6.40
2014,02,15,16,56,8.10
2014,02,15,16,57,6.40
2014,02,15,16,58,8.10
2014,02,15,16,59,6.40
2014,02,15,17,00,17.70
2014,02,15,17,01,11.30
2014,02,15,17,02,6.40
2014,02,15,17,03,11.30
2014,02,15,17,04,8.10
2014,02,15,17,05,19.30
2014,02,15,17,06,9.60
2014,02,15,17,07,8.10
2014,02,15,17,08,6.40
2014,02,15,17,09,3.20
2014,02,15,17,10,11.30
2014,02,15,17,11,8.10
2014,02,15,17,12,4.80
2014,02,15,17,13,16.10
2014,02,15,17,15,6.40
2014,02,15,17,16,14.50
2014,02,15,17,17,19.30
2014,02,15,17,18,1.60
2014,02,15,17,19,6.40
2014,02,15,17,20,25.70
2014,02,15,17,21,19.30
2014,02,15,17,22,22.50
2014,02,15,17,23,27.40
2014,02,15,17,24,25.70
2014,02,15,17,25,16.10
2014,02,15,17,26,20.90
2014,02,15,17,27,30.60
2014,02,15,17,28,9.60
2014,02,15,17,29,40.20
2014,02,15,17,30,29.00
2014,02,15,17,31,25.70
2014,02,15,17,32,33.80
2014,02,15,17,33,38.60
2014,02,15,17,34,46.70
2014,02,15,17,35,37.00
2014,02,15,17,36,33.80
2014,02,15,17,37,37.00
2014,02,15,17,38,40.20
2014,02,15,17,39,29.00
2014,02,15,17,40,29.00
2014,02,15,17,41,17.70
2014,02,15,17,42,33.80
2014,02,15,17,43,35.40
2014,02,15,17,44,30.60
2014,02,15,17,45,45.10
2014,02,15,17,46,46.70
2014,02,15,17,47,29.00
2014,02,15,17,48,38.60
2014,02,15,17,49,29.00
2014,02,15,17,50,38.60
2014,02,15,17,51,35.40
2014,02,15,17,52,30.60
2014,02,15,17,53,25.70
2014,02,15,17,54,40.20
2014,02,15,17,55,24.20
2014,02,15,17,56,33.80
2014,02,15,17,57,24.20
2014,02,15,17,58,33.80
2014,02,15,17,59,38.60
2014,02,15,18,00,29.00
2014,02,15,18,01,40.20
2014,02,15,18,02,40.20
2014,02,15,18,03,27.40
2014,02,15,18,04,9.60
2014,02,15,18,05,11.30
2014,02,15,18,06,6.40
2014,02,15,18,07,22.50
2014,02,15,18,08,27.40
2014,02,15,18,09,20.90
2014,02,15,18,10,25.70
2014,02,15,18,11,30.60
2014,02,15,18,12,25.70
2014,02,15,18,13,19.30
2014,02,15,18,14,16.10
2014,02,15,18,15,22.50
2014,02,15,18,16,30.60
2014,02,15,18,17,29.00
2014,02,15,18,18,32.20
2014,02,15,18,19,9.60
2014,02,15,18,20,29.00
2014,02,15,18,21,29.00
2014,02,15,18,22,22.50
2014,02,15,18,23,17.70
2014,02,15,18,24,11.30
2014,02,15,18,25,9.60
2014,02,15,18,26,19.30
2014,02,15,18,27,19.30
2014,02,15,18,28,30.60
2014,02,15,18,29,27.40
2014,02,15,18,30,27.40
2014,02,15,18,31,22.50
2014,02,15,18,32,30.60
2014,02,15,18,33,30.60
2014,02,15,18,34,35.40
2014,02,15,18,35,32.20
2014,02,15,18,36,33.80
2014,02,15,18,37,25.70
2014,02,15,18,38,22.50
2014,02,15,18,39,32.20
2014,02,15,18,40,20.90
2014,02,15,18,41,22.50
2014,02,15,18,42,33.80
2014,02,15,18,43,27.40
2014,02,15,18,44,20.90
2014,02,15,18,45,38.60
2014,02,15,18,46,40.20
2014,02,15,18,47,33.80
2014,02,15,18,48,33.80
2014,02,15,18,49,32.20
2014,02,15,18,50,33.80
2014,02,15,18,51,41.80
2014,02,15,18,52,37.00
2014,02,15,18,53,37.00
2014,02,15,18,54,27.40
2014,02,15,18,55,35.40
2014,02,15,18,56,74.00
2014,02,15,18,57,75.60
2014,02,15,18,58,30.60
2014,02,15,18,59,41.80
2014,02,15,19,00,43.50
2014,02,15,19,01,40.20
2014,02,15,19,02,37.00
2014,02,15,19,03,35.40
2014,02,15,19,04,33.80
2014,02,15,19,05,33.80
2014,02,15,19,06,48.30
2014,02,15,19,07,32.20
2014,02,15,19,08,25.70
2014,02,15,19,09,24.20
2014,02,15,19,10,43.50
2014,02,15,19,11,38.60
2014,02,15,19,12,46.70
2014,02,15,19,13,37.00
2014,02,15,19,14,29.00
2014,02,15,19,15,37.00
2014,02,15,19,16,33.80
2014,02,15,19,17,30.60
2014,02,15,19,18,40.20
2014,02,15,19,19,43.50
2014,02,15,19,20,37.00
2014,02,15,19,21,40.20
2014,02,15,19,22,22.50
2014,02,15,19,23,32.20
2014,02,15,19,24,40.20
2014,02,15,19,25,40.20
2014,02,15,19,26,37.00
2014,02,15,19,27,40.20
2014,02,15,19,28,48.30
2014,02,15,19,29,29.00
2014,02,15,19,30,29.00
2014,02,15,19,31,29.00
2014,02,15,19,32,30.60
2014,02,15,19,33,46.70
2014,02,15,19,34,40.20
2014,02,15,19,35,37.00
2014,02,15,19,36,35.40
2014,02,15,19,37,22.50
2014,02,15,19,38,37.00
2014,02,15,19,39,32.20
2014,02,15,19,40,33.80
2014,02,15,19,41,27.40
2014,02,15,19,42,32.20
2014,02,15,19,43,35.40
2014,02,15,19,44,35.40
2014,02,15,19,45,43.50
2014,02,15,19,46,27.40
2014,02,15,19,47,51.50
2014,02,15,19,48,46.70
2014,02,15,19,49,33.80
2014,02,15,19,50,41.80
2014,02,15,19,51,25.70
2014,02,15,19,52,37.00
2014,02,15,19,53,53.10
2014,02,15,19,54,41.80
2014,02,15,19,55,29.00
2014,02,15,19,56,43.50
2014,02,15,19,57,51.50
2014,02,15,19,58,27.40
2014,02,15,19,59,43.50
2014,02,15,20,00,35.40
2014,02,15,20,01,49.90
2014,02,15,20,02,30.60
2014,02,15,20,03,33.80
2014,02,15,20,04,41.80
2014,02,15,20,05,41.80
2014,02,15,20,06,46.70
2014,02,15,20,07,45.10
2014,02,15,20,08,43.50
2014,02,15,20,09,35.40
2014,02,15,20,10,24.20
2014,02,15,20,11,51.50
2014,02,15,20,12,29.00
2014,02,15,20,13,40.20
2014,02,15,20,14,43.50
2014,02,15,20,15,45.10
2014,02,15,20,16,45.10
2014,02,15,20,17,37.00
2014,02,15,20,18,30.60
2014,02,15,20,19,37.00
2014,02,15,20,20,29.00
2014,02,15,20,21,35.40
2014,02,15,20,22,53.10
2014,02,15,20,23,45.10
2014,02,15,20,24,49.90
2014,02,15,20,25,38.60
2014,02,15,20,26,41.80
2014,02,15,20,27,38.60
2014,02,15,20,28,30.60
2014,02,15,20,29,41.80
2014,02,15,20,30,40.20
2014,02,15,20,31,40.20
2014,02,15,20,32,29.00
2014,02,15,20,33,37.00
2014,02,15,20,34,41.80
2014,02,15,20,35,29.00
2014,02,15,20,36,38.60
2014,02,15,20,37,37.00
2014,02,15,20,38,43.50
2014,02,15,20,39,48.30
2014,02,15,20,40,33.80
2014,02,15,20,41,53.10
2014,02,15,20,42,48.30
2014,02,15,20,43,43.50
2014,02,15,20,44,41.80
2014,02,15,20,45,46.70
2014,02,15,20,46,37.00
2014,02,15,20,47,32.20
2014,02,15,20,48,35.40
2014,02,15,20,49,30.60
2014,02,15,20,50,24.20
2014,02,15,20,51,54.70
2014,02,15,20,52,51.50
2014,02,15,20,53,40.20
2014,02,15,20,54,30.60
2014,02,15,20,55,20.90
2014,02,15,20,56,32.20
2014,02,15,20,57,30.60
2014,02,15,20,58,29.00
2014,02,15,20,59,41.80
2014,02,15,21,00,37.00
2014,02,15,21,01,20.90
2014,02,15,21,02,29.00
2014,02,15,21,03,33.80
2014,02,15,21,04,46.70
2014,02,15,21,05,46.70
2014,02,15,21,06,37.00
2014,02,15,21,07,45.10
2014,02,15,21,08,40.20
2014,02,15,21,09,35.40
2014,02,15,21,10,45.10
2014,02,15,21,11,46.70
2014,02,15,21,12,37.00
2014,02,15,21,13,41.80
2014,02,15,21,14,33.80
2014,02,15,21,15,40.20
2014,02,15,21,16,27.40
2014,02,15,21,17,32.20
2014,02,15,21,18,30.60
2014,02,15,21,19,25.70
2014,02,15,21,20,30.60
2014,02,15,21,21,38.60
2014,02,15,21,22,33.80
2014,02,15,21,23,27.40
2014,02,15,21,24,32.20
2014,02,15,21,25,25.70
2014,02,15,21,26,27.40
2014,02,15,21,27,24.20
2014,02,15,21,28,20.90
2014,02,15,21,29,32.20
2014,02,15,21,30,27.40
2014,02,15,21,31,27.40
2014,02,15,21,32,40.20
2014,02,15,21,33,37.00
2014,02,15,21,34,30.60
2014,02,15,21,35,38.60
2014,02,15,21,36,41.80
2014,02,15,21,37,37.00
2014,02,15,21,38,29.00
2014,02,15,21,39,32.20
2014,02,15,21,40,25.70
2014,02,15,21,41,32.20
2014,02,15,21,42,38.60
2014,02,15,21,43,29.00
2014,02,15,21,44,20.90
2014,02,15,21,45,22.50
2014,02,15,21,46,25.70
2014,02,15,21,47,22.50
2014,02,15,21,48,41.80
2014,02,15,21,49,30.60
2014,02,15,21,50,49.90
2014,02,15,21,51,40.20
2014,02,15,21,52,29.00
2014,02,15,21,53,33.80
2014,02,15,21,54,29.00
2014,02,15,21,55,40.20
2014,02,15,21,56,37.00
2014,02,15,21,57,37.00
2014,02,15,21,58,41.80
2014,02,15,21,59,35.40
2014,02,15,22,00,46.70
2014,02,15,22,01,30.60
2014,02,15,22,02,46.70
2014,02,15,22,03,37.00
2014,02,15,22,04,38.60
2014,02,15,22,05,37.00
2014,02,15,22,06,29.00
2014,02,15,22,07,19.30
2014,02,15,22,08,30.60
2014,02,15,22,09,22.50
2014,02,15,22,10,35.40
2014,02,15,22,11,29.00
2014,02,15,22,12,33.80
2014,02,15,22,13,25.70
2014,02,15,22,14,27.40
2014,02,15,22,15,20.90
2014,02,15,22,16,24.20
2014,02,15,22,17,27.40
2014,02,15,22,18,32.20
2014,02,15,22,19,27.40
2014,02,15,22,20,40.20
2014,02,15,22,21,41.80
2014,02,15,22,22,40.20
2014,02,15,22,23,24.20
2014,02,15,22,24,41.80
2014,02,15,22,25,46.70
2014,02,15,22,26,40.20
2014,02,15,22,27,48.30
2014,02,15,22,28,40.20
2014,02,15,22,29,35.40
2014,02,15,22,30,54.70
2014,02,15,22,31,53.10
2014,02,15,22,32,41.80
2014,02,15,22,33,41.80
2014,02,15,22,34,46.70
2014,02,15,22,35,35.40
2014,02,15,22,36,40.20
2014,02,15,22,37,33.80
2014,02,15,22,38,37.00
2014,02,15,22,39,35.40
2014,02,15,22,40,37.00
2014,02,15,22,41,35.40
2014,02,15,22,42,41.80
2014,02,15,22,43,41.80
2014,02,15,22,44,37.00
2014,02,15,22,45,35.40
2014,02,15,22,46,27.40
2014,02,15,22,47,33.80
2014,02,15,22,48,48.30
2014,02,15,22,49,37.00
2014,02,15,22,50,43.50
2014,02,15,22,51,30.60
2014,02,15,22,52,33.80
2014,02,15,22,53,37.00
2014,02,15,22,54,45.10
2014,02,15,22,55,40.20
2014,02,15,22,56,35.40
2014,02,15,22,57,29.00
2014,02,15,22,58,30.60
2014,02,15,22,59,38.60
2014,02,15,23,00,24.20
2014,02,15,23,01,32.20
2014,02,15,23,02,30.60
2014,02,15,23,03,24.20
2014,02,15,23,04,17.70
2014,02,15,23,05,33.80
2014,02,15,23,06,30.60
2014,02,15,23,07,24.20
2014,02,15,23,08,24.20
2014,02,15,23,09,30.60
2014,02,15,23,10,33.80
2014,02,15,23,11,27.40
2014,02,15,23,12,22.50
2014,02,15,23,13,25.70
2014,02,15,23,14,22.50
2014,02,15,23,15,19.30
2014,02,15,23,16,17.70
2014,02,15,23,17,19.30
2014,02,15,23,18,14.50
2014,02,15,23,19,16.10